Soldotna, AK

1:01 AM AKST on January 21, 2018 (GMT -0900)
Soldotna

Weather History for PASX - January, 2013

Change the Weather History Date:

Friday, January 4, 2013

  Actual Average Record
Temperature  
Mean Temperature 22 °F -  
Max Temperature 30 °F 17 °F 47 °F (1960)
Min Temperature 15 °F 0 °F -47 °F (1975)
Degree Days  
Heating Degree Days 42    
Moisture  
Dew Point 23 °F    
Average Humidity 92    
Maximum Humidity 100    
Minimum Humidity 86    
Precipitation  
Precipitation 0.00 in - - ()
Sea Level Pressure  
Sea Level Pressure 29.72 in    
Wind  
Wind Speed 1 mph (East)    
Max Wind Speed 6 mph    
Max Gust Speed -    
Visibility 10 miles    
Events      
Averages and records for this station are not official NWS values.
T = Trace of Precipitation, MM = Missing Value Source: NWS Daily Summary

Daily Weather History Graph

Daily Weather History Graph

Search for Another Location

Airport or City:

Trip Planner

Search our weather history database for the weather conditions in past years. The results will help you decide how hot, cold, wet, or windy it might be!

Date:

Astronomy

Jan. 04, 2013 Rise Set
Actual Time 10:08 AM AKST 4:10 PM AKST
Civil Twilight 9:11 AM AKST 5:07 PM AKST
Nautical Twilight 8:14 AM AKST 6:04 PM AKST
Astronomical Twilight 7:22 AM AKST 6:56 PM AKST
Moon 1:00 AM AKST (1/4) 11:44 AM AKST (1/4)
Length of Visible Light 7h 56m
Length of Day
6h 02m
Waning Gibbous, 53% of the Moon is Illuminated
Jan 4
Waning Gibbous
Jan 4
Last Quarter
Jan 11
New
Jan 18
First Quarter
Jan 26
Full

Hourly Weather History & Observations

Time (AKST) Temp. Windchill Dew Point Humidity Pressure Visibility Wind Dir Wind Speed Gust Speed Precip Events Conditions
12:16 AM 30.2 °F - 28.4 °F 93% 29.56 in 10.0 mi Calm Calm - N/A   Overcast
12:36 AM 30.2 °F - 26.6 °F 86% 29.56 in 10.0 mi Calm Calm - N/A   Mostly Cloudy
12:56 AM 30.2 °F - 28.4 °F 93% 29.57 in 10.0 mi Calm Calm - N/A   Overcast
1:16 AM 30.2 °F - 26.6 °F 86% 29.57 in 10.0 mi Calm Calm - N/A   Overcast
1:36 AM 28.4 °F - 26.6 °F 93% 29.57 in 10.0 mi Calm Calm - N/A   Overcast
1:56 AM 28.4 °F - 26.6 °F 93% 29.58 in 10.0 mi Calm Calm - N/A   Overcast
2:16 AM 28.4 °F - 26.6 °F 93% 29.59 in 10.0 mi Calm Calm - N/A   Overcast
2:56 AM 28.4 °F - 26.6 °F 93% 29.60 in 10.0 mi Calm Calm - N/A   Overcast
3:36 AM 28.4 °F - 26.6 °F 93% 29.61 in 10.0 mi Calm Calm - N/A   Overcast
4:16 AM 28.4 °F - 26.6 °F 93% 29.62 in 10.0 mi Calm Calm - N/A   Overcast
4:36 AM 28.4 °F - 26.6 °F 93% 29.63 in 10.0 mi Calm Calm - N/A   Overcast
4:56 AM 28.4 °F - 26.6 °F 93% 29.63 in 10.0 mi Calm Calm - N/A   Overcast
5:16 AM 28.4 °F - 26.6 °F 93% 29.64 in 10.0 mi Calm Calm - N/A   Overcast
5:36 AM 28.4 °F - 26.6 °F 93% 29.65 in 10.0 mi Calm Calm - N/A   Overcast
5:56 AM 28.4 °F - 26.6 °F 93% 29.66 in 8.0 mi Calm Calm - N/A   Overcast
6:16 AM 28.4 °F - 26.6 °F 93% 29.66 in 10.0 mi Calm Calm - N/A   Overcast
6:36 AM 28.4 °F - 26.6 °F 93% 29.66 in 10.0 mi Calm Calm - N/A   Overcast
6:56 AM 28.4 °F - 26.6 °F 93% 29.67 in 10.0 mi Calm Calm - N/A   Overcast
7:16 AM 28.4 °F 24.6 °F 26.6 °F 93% 29.67 in 10.0 mi ESE 3.5 mph - N/A   Overcast
7:36 AM 26.6 °F - 24.8 °F 93% 29.68 in 10.0 mi Calm Calm - N/A   Mostly Cloudy
7:56 AM 26.6 °F - 24.8 °F 93% 29.69 in 10.0 mi Calm Calm - N/A   Mostly Cloudy
8:16 AM 26.6 °F - 24.8 °F 93% 29.70 in 10.0 mi Calm Calm - N/A   Overcast
8:36 AM 26.6 °F - 24.8 °F 93% 29.71 in 10.0 mi Calm Calm - N/A   Overcast
8:56 AM 26.6 °F 22.6 °F 24.8 °F 93% 29.72 in 10.0 mi East 3.5 mph - N/A   Overcast
9:16 AM 26.6 °F 22.6 °F 24.8 °F 93% 29.73 in 10.0 mi ENE 3.5 mph - N/A   Overcast
9:36 AM 26.6 °F - 24.8 °F 93% 29.73 in 10.0 mi Calm Calm - N/A   Overcast
9:56 AM 24.8 °F 20.5 °F 23.0 °F 93% 29.74 in 10.0 mi East 3.5 mph - N/A   Mostly Cloudy
10:16 AM 24.8 °F 20.5 °F 23.0 °F 93% 29.75 in 10.0 mi East 3.5 mph - N/A   Partly Cloudy
10:36 AM 24.8 °F 20.5 °F 21.2 °F 86% 29.76 in 10.0 mi ENE 3.5 mph - N/A   Clear
10:56 AM 23.0 °F 18.4 °F 21.2 °F 93% 29.76 in 10.0 mi ENE 3.5 mph - N/A   Clear
11:16 AM 21.2 °F - 19.4 °F 93% 29.77 in 10.0 mi Calm Calm - N/A   Clear
11:36 AM 21.2 °F - 19.4 °F 93% 29.78 in 10.0 mi Calm Calm - N/A   Clear
11:56 AM 23.0 °F 15.8 °F 21.2 °F 93% 29.79 in 10.0 mi East 5.8 mph - N/A   Clear
12:16 PM 24.8 °F 20.5 °F 23.0 °F 93% 29.78 in 10.0 mi East 3.5 mph - N/A   Clear
12:36 PM 24.8 °F 20.5 °F 23.0 °F 93% 29.78 in 10.0 mi East 3.5 mph - N/A   Clear
12:56 PM 26.6 °F 22.6 °F 24.8 °F 93% 29.79 in 10.0 mi East 3.5 mph - N/A   Clear
1:16 PM 26.6 °F 22.6 °F 24.8 °F 93% 29.79 in 10.0 mi East 3.5 mph - N/A   Partly Cloudy
1:36 PM 26.6 °F 21.2 °F 24.8 °F 93% 29.79 in 10.0 mi East 4.6 mph - N/A   Partly Cloudy
1:56 PM 28.4 °F 24.6 °F 26.6 °F 93% 29.79 in 10.0 mi East 3.5 mph - N/A   Clear
2:16 PM 28.4 °F 23.3 °F 26.6 °F 93% 29.79 in 10.0 mi East 4.6 mph - N/A   Clear
2:36 PM 28.4 °F - 26.6 °F 93% 29.79 in 10.0 mi Calm Calm - N/A   Clear
2:56 PM 26.6 °F 22.6 °F 24.8 °F 93% 29.79 in 10.0 mi East 3.5 mph - N/A   Clear
3:16 PM 24.8 °F 20.5 °F 23.0 °F 93% 29.79 in 10.0 mi East 3.5 mph - N/A   Partly Cloudy
3:36 PM 26.6 °F - 24.8 °F 93% 29.80 in 10.0 mi Calm Calm - N/A   Clear
3:56 PM 24.8 °F 20.5 °F 23.0 °F 93% 29.80 in 10.0 mi East 3.5 mph - N/A   Clear
4:16 PM 24.8 °F 19.1 °F 23.0 °F 93% 29.80 in 10.0 mi ESE 4.6 mph - N/A   Clear
4:36 PM 24.8 °F - 21.2 °F 86% 29.79 in 10.0 mi Calm Calm - N/A   Partly Cloudy
4:56 PM 24.8 °F - 21.2 °F 86% 29.79 in 10.0 mi Calm Calm - N/A   Partly Cloudy
5:16 PM 24.8 °F 19.1 °F 21.2 °F 86% 29.79 in 10.0 mi East 4.6 mph - N/A   Mostly Cloudy
5:36 PM 24.8 °F - 23.0 °F 93% 29.79 in 10.0 mi Calm Calm - N/A   Overcast
5:56 PM 23.0 °F - 21.2 °F 93% 29.78 in 10.0 mi Calm Calm - N/A   Overcast
6:16 PM 23.0 °F - 21.2 °F 93% 29.77 in 10.0 mi Calm Calm - N/A   Overcast
6:36 PM 21.2 °F - 19.4 °F 93% 29.77 in 10.0 mi Calm Calm - N/A   Mostly Cloudy
6:56 PM 19.4 °F - 15.8 °F 86% 29.77 in 10.0 mi Calm Calm - N/A   Partly Cloudy
7:16 PM 19.4 °F 14.3 °F 15.8 °F 86% 29.76 in 10.0 mi East 3.5 mph - N/A   Clear
7:36 PM 19.4 °F - 17.6 °F 93% 29.75 in 10.0 mi Calm Calm - N/A   Clear
7:56 PM 19.4 °F - 15.8 °F 86% 29.75 in 10.0 mi Calm Calm - N/A   Clear
8:16 PM 17.6 °F - 15.8 °F 93% 29.75 in 10.0 mi Calm Calm - N/A   Clear
8:36 PM 15.8 °F - 12.2 °F 86% 29.74 in 10.0 mi Calm Calm - N/A   Clear
8:56 PM 15.8 °F 10.2 °F 12.2 °F 86% 29.74 in 10.0 mi NE 3.5 mph - N/A   Mostly Cloudy
9:16 PM 15.8 °F - 14.0 °F 93% 29.74 in 10.0 mi Calm Calm - N/A   Overcast
9:36 PM 17.6 °F 12.3 °F 14.0 °F 86% 29.74 in 10.0 mi East 3.5 mph - N/A   Mostly Cloudy
9:56 PM 21.2 °F 14.9 °F 21.2 °F 100% 29.73 in 10.0 mi ENE 4.6 mph - N/A   Mostly Cloudy
10:16 PM 21.2 °F 16.4 °F 19.4 °F 93% 29.73 in 10.0 mi East 3.5 mph - N/A   Overcast
10:36 PM 21.2 °F - 19.4 °F 93% 29.72 in 10.0 mi Calm Calm - N/A   Overcast
10:56 PM 21.2 °F 16.4 °F 21.2 °F 100% 29.72 in 10.0 mi East 3.5 mph - N/A   Overcast
11:16 PM 23.0 °F 18.4 °F 21.2 °F 93% 29.72 in 10.0 mi ENE 3.5 mph - N/A   Overcast
11:36 PM 21.2 °F - 19.4 °F 93% 29.71 in 10.0 mi Calm Calm - N/A   Mostly Cloudy
11:56 PM 23.0 °F - 19.4 °F 86% 29.70 in 10.0 mi Calm Calm - N/A   Overcast